TimeCDT,TemperatureF,Dew PointF,Humidity,Sea Level PressureIn,VisibilityMPH,Wind Direction,Wind SpeedMPH,Gust SpeedMPH,PrecipitationIn,Events,Conditions,WindDirDegrees,DateUTC
12:53 AM,72.0,71.1,97,30.11,10.0,East,3.5,-,N/A,,Partly Cloudy,100,2013-07-15 05:53:00
1:53 AM,72.0,70.0,93,30.10,10.0,Calm,Calm,-,N/A,,Clear,0,2013-07-15 06:53:00
2:53 AM,72.0,70.0,93,30.11,10.0,Calm,Calm,-,N/A,,Partly Cloudy,0,2013-07-15 07:53:00
3:53 AM,72.0,70.0,93,30.12,10.0,Calm,Calm,-,N/A,,Clear,0,2013-07-15 08:53:00
4:53 AM,72.0,70.0,93,30.13,10.0,Calm,Calm,-,0.01,,Scattered Clouds,0,2013-07-15 09:53:00
5:53 AM,72.0,70.0,93,30.15,10.0,Calm,Calm,-,N/A,,Clear,0,2013-07-15 10:53:00
6:53 AM,73.9,72.0,93,30.18,10.0,East,4.6,-,N/A,,Overcast,100,2013-07-15 11:53:00
7:05 AM,73.4,71.6,94,30.19,10.0,ESE,3.5,-,N/A,,Overcast,110,2013-07-15 12:05:00
7:30 AM,75.2,73.4,94,30.20,10.0,Variable,3.5,-,N/A,,Overcast,0,2013-07-15 12:30:00
7:42 AM,75.2,73.4,94,30.20,10.0,Variable,4.6,-,N/A,,Mostly Cloudy,0,2013-07-15 12:42:00
7:53 AM,75.9,73.0,91,30.19,10.0,Variable,4.6,-,N/A,,Scattered Clouds,0,2013-07-15 12:53:00
8:53 AM,78.1,73.0,84,30.20,10.0,Variable,6.9,-,N/A,,Scattered Clouds,0,2013-07-15 13:53:00
9:23 AM,78.8,73.4,83,30.22,10.0,SSE,9.2,-,N/A,,Mostly Cloudy,150,2013-07-15 14:23:00
9:53 AM,81.0,73.0,77,30.20,10.0,South,10.4,-,N/A,,Mostly Cloudy,170,2013-07-15 14:53:00
10:53 AM,84.0,73.0,69,30.20,10.0,SSE,11.5,19.6,N/A,,Scattered Clouds,160,2013-07-15 15:53:00
11:53 AM,82.9,73.0,72,30.20,10.0,Variable,4.6,-,N/A,,Mostly Cloudy,0,2013-07-15 16:53:00
12:53 PM,84.0,72.0,67,30.19,10.0,Variable,5.8,-,0.00,,Mostly Cloudy,0,2013-07-15 17:53:00
1:53 PM,84.0,72.0,67,30.17,10.0,Variable,4.6,-,N/A,,Mostly Cloudy,0,2013-07-15 18:53:00
2:53 PM,84.0,72.0,67,30.16,10.0,Variable,3.5,-,N/A,,Overcast,0,2013-07-15 19:53:00
3:53 PM,84.9,71.1,63,30.15,10.0,ESE,6.9,-,N/A,,Mostly Cloudy,120,2013-07-15 20:53:00
4:53 PM,82.9,73.9,74,30.15,10.0,SSW,9.2,-,N/A,,Mostly Cloudy,210,2013-07-15 21:53:00
5:53 PM,82.0,73.9,76,30.14,10.0,South,3.5,-,0.01,,Scattered Clouds,180,2013-07-15 22:53:00
6:53 PM,84.0,73.0,69,30.15,10.0,ESE,3.5,-,N/A,,Partly Cloudy,110,2013-07-15 23:53:00
7:53 PM,81.0,72.0,74,30.17,10.0,East,4.6,-,N/A,,Clear,100,2013-07-16 00:53:00
8:53 PM,79.0,71.1,77,30.19,10.0,Calm,Calm,-,N/A,,Clear,0,2013-07-16 01:53:00
9:53 PM,77.0,70.0,79,30.21,10.0,Calm,Calm,-,N/A,,Clear,0,2013-07-16 02:53:00
10:53 PM,73.0,71.1,93,30.21,10.0,Calm,Calm,-,N/A,,Clear,0,2013-07-16 03:53:00
11:53 PM,73.0,70.0,90,30.21,10.0,Calm,Calm,-,N/A,,Clear,0,2013-07-16 04:53:00